,,Stat6,,Stat2,,Stat8,,Stat9,,Stat10,,Wind1,,Wind1,
time,status,PA1M_AVG,status,PR1M_SUM,status,RH1M_AVG,status,SR1M_AVG,status,TA1M_AVG,status,W1dAve1m,status,W1sAve1m,
2007-10-19, 00:00:00,VALID,918.275,VALID,0,VALID,100,VALID,-0.0339617,VALID,18.3973,VALID,184,VALID,0,
2007-10-19, 00:01:00,VALID,918.253,VALID,0,VALID,100,VALID,-0.0339617,VALID,18.3843,VALID,184,VALID,0,
2007-10-19, 00:02:00,VALID,918.232,VALID,0,VALID,100,VALID,-0.0339617,VALID,18.3711,VALID,184,VALID,0,
2007-10-19, 00:03:01,VALID,918.208,VALID,0,VALID,100,VALID,-0.0339617,VALID,18.3744,VALID,184,VALID,0,
2007-10-19, 00:04:00,VALID,918.183,VALID,0,VALID,100,VALID,-0.0679233,VALID,18.3978,VALID,184,VALID,0,
2007-10-19, 00:05:00,VALID,918.166,VALID,0,VALID,100,VALID,-0.0679233,VALID,18.3911,VALID,184,VALID,0,
2007-10-19, 00:06:01,VALID,918.138,VALID,0,VALID,100,VALID,-0.0509425,VALID,18.4003,VALID,184,VALID,0,
2007-10-19, 00:07:00,VALID,918.124,VALID,0,VALID,100,VALID,-0.0679233,VALID,18.4036,VALID,184,VALID,0,
2007-10-19, 00:08:01,VALID,918.116,VALID,0,VALID,100,VALID,-0.0679233,VALID,18.4008,VALID,184,VALID,0,
2007-10-19, 00:09:00,VALID,918.096,VALID,0,VALID,100,VALID,-0.0509425,VALID,18.4138,VALID,184,VALID,0,
2007-10-19, 00:10:01,VALID,918.092,VALID,0,VALID,100,VALID,-0.0169808,VALID,18.4457,VALID,184,VALID,0,
2007-10-19, 00:11:01,VALID,918.083,VALID,0,VALID,100,VALID,-0.0509425,VALID,18.4559,VALID,184,VALID,0,
2007-10-19, 00:12:01,VALID,918.095,VALID,0,VALID,100,VALID,-0.0169808,VALID,18.4425,VALID,184,VALID,0,
2007-10-19, 00:13:01,VALID,918.1,VALID,0,VALID,100,VALID,-0.0339617,VALID,18.4425,VALID,184,VALID,0,
2007-10-19, 00:14:01,VALID,918.105,VALID,0,VALID,100,VALID,-0.0169808,VALID,18.4101,VALID,184,VALID,0,
2007-10-19, 00:15:01,VALID,918.114,VALID,0,VALID,100,VALID,-0.0509425,VALID,18.3809,VALID,184,VALID,0,
2007-10-19, 00:16:01,VALID,918.123,VALID,0,VALID,100,VALID,-0.0339617,VALID,18.3549,VALID,184,VALID,0,
2007-10-19, 00:17:01,VALID,918.123,VALID,0,VALID,100,VALID,-0.0679233,VALID,18.3063,VALID,184,VALID,0,
2007-10-19, 00:18:00,VALID,918.113,VALID,0,VALID,100,VALID,-0.0169808,VALID,18.2576,VALID,185,VALID,0,
2007-10-19, 00:19:00,VALID,918.104,VALID,0,VALID,100,VALID,-0.0339617,VALID,18.2481,VALID,200,VALID,0.834413,
2007-10-19, 00:20:00,VALID,918.075,VALID,0,VALID,100,VALID,0,VALID,18.2479,VALID,205,VALID,0.702947,
2007-10-19, 00:21:00,VALID,918.048,VALID,0,VALID,100,VALID,-0.0509425,VALID,18.2873,VALID,200,VALID,0.59747,
2007-10-19, 00:22:00,VALID,918.017,VALID,0,VALID,100,VALID,0.0509425,VALID,18.3086,VALID,199,VALID,0.258956,
2007-10-19, 00:23:00,VALID,917.981,VALID,0,VALID,100,VALID,0.0849042,VALID,18.3276,VALID,199,VALID,0.36684,
2007-10-19, 00:24:00,VALID,917.951,VALID,0,VALID,100,VALID,0.0509425,VALID,18.3406,VALID,199,VALID,0.340298,
2007-10-19, 00:25:00,VALID,917.921,VALID,0,VALID,100,VALID,0.0509425,VALID,18.357,VALID,199,VALID,0.0745584,
2007-10-19, 00:26:00,VALID,917.908,VALID,0,VALID,100,VALID,0.0849042,VALID,18.4087,VALID,192,VALID,0.439631,
2007-10-19, 00:27:00,VALID,917.881,VALID,0,VALID,100,VALID,0.0849042,VALID,18.4668,VALID,184,VALID,0.258176,
2007-10-19, 00:28:00,VALID,917.876,VALID,0,VALID,100,VALID,0.0679233,VALID,18.4733,VALID,184,VALID,0.431176,
2007-10-19, 00:29:00,VALID,917.882,VALID,0,VALID,100,VALID,0.0849042,VALID,18.4735,VALID,184,VALID,0.322266,
2007-10-19, 00:30:00,VALID,917.888,VALID,0,VALID,100,VALID,0.0679233,VALID,18.4476,VALID,178,VALID,0.405208,
2007-10-19, 00:31:00,VALID,917.885,VALID,0,VALID,100,VALID,0.0849042,VALID,18.3989,VALID,175,VALID,0.522866,
2007-10-19, 00:32:00,VALID,917.877,VALID,0,VALID,100,VALID,0.101885,VALID,18.373,VALID,156,VALID,0.703658,
2007-10-19, 00:33:00,VALID,917.873,VALID,0,VALID,100,VALID,0.0679233,VALID,18.3857,VALID,158,VALID,0.93064,
2007-10-19, 00:34:00,VALID,917.864,VALID,0,VALID,100,VALID,0.0509425,VALID,18.386,VALID,162,VALID,1.04451,
2007-10-19, 00:35:00,VALID,917.847,VALID,0,VALID,100,VALID,0.0509425,VALID,18.3633,VALID,162,VALID,0.937137,
2007-10-19, 00:36:00,VALID,917.837,VALID,0,VALID,100,VALID,0.0679233,VALID,18.3408,VALID,162,VALID,0.714489,
2007-10-19, 00:37:00,VALID,917.827,VALID,0,VALID,100,VALID,0,VALID,18.3288,VALID,161,VALID,0.720424,
2007-10-19, 00:38:00,VALID,917.825,VALID,0,VALID,100,VALID,0,VALID,18.3193,VALID,148,VALID,0.546875,
2007-10-19, 00:39:00,VALID,917.829,VALID,0,VALID,100,VALID,-0.0679233,VALID,18.3035,VALID,148,VALID,0.395241,
2007-10-19, 00:40:00,VALID,917.814,VALID,0,VALID,100,VALID,-0.0339617,VALID,18.2576,VALID,140,VALID,0.439174,
2007-10-19, 00:41:00,VALID,917.8,VALID,0,VALID,100,VALID,-0.0339617,VALID,18.2254,VALID,137,VALID,0.427973,
2007-10-19, 00:42:00,VALID,917.789,VALID,0,VALID,100,VALID,-0.0849042,VALID,18.2122,VALID,137,VALID,0.49535,
2007-10-19, 00:43:00,VALID,917.772,VALID,0,VALID,100,VALID,-0.0849042,VALID,18.2222,VALID,137,VALID,0.505504,
2007-10-19, 00:44:00,VALID,917.75,VALID,0,VALID,100,VALID,-0.0169808,VALID,18.2252,VALID,137,VALID,0.627418,
2007-10-19, 00:45:00,VALID,917.735,VALID,0,VALID,100,VALID,-0.0339617,VALID,18.219,VALID,131,VALID,0.839134,
2007-10-19, 00:46:00,VALID,917.708,VALID,0,VALID,100,VALID,-0.0339617,VALID,18.2576,VALID,121,VALID,1.14901,
2007-10-19, 00:47:00,VALID,917.696,VALID,0,VALID,100,VALID,-0.0849042,VALID,18.2898,VALID,116,VALID,1.07682,
2007-10-19, 00:48:00,VALID,917.682,VALID,0,VALID,100,VALID,-0.0849042,VALID,18.303,VALID,115,VALID,1.07927,
2007-10-19, 00:49:00,VALID,917.67,VALID,0,VALID,100,VALID,-0.0339617,VALID,18.2834,VALID,106,VALID,1.01637,
2007-10-19, 00:50:00,VALID,917.665,VALID,0,VALID,100,VALID,-0.0509425,VALID,18.241,VALID,105,VALID,0.830729,
2007-10-19, 00:51:00,VALID,917.67,VALID,0,VALID,100,VALID,-0.0169808,VALID,18.2285,VALID,105,VALID,0.806176,
2007-10-19, 00:52:00,VALID,917.655,VALID,0,VALID,100,VALID,-0.0169808,VALID,18.196,VALID,107,VALID,0.859738,
2007-10-19, 00:53:00,VALID,917.677,VALID,0,VALID,100,VALID,-0.0509425,VALID,18.2155,VALID,119,VALID,0.883008,
2007-10-19, 00:54:00,VALID,917.691,VALID,0,VALID,100,VALID,-0.0509425,VALID,18.2447,VALID,133,VALID,0.788504,
2007-10-19, 00:55:00,VALID,917.689,VALID,0,VALID,100,VALID,-0.0509425,VALID,18.2933,VALID,152,VALID,0.835751,
2007-10-19, 00:56:00,VALID,917.683,VALID,0,VALID,100,VALID,-0.0339617,VALID,18.3125,VALID,176,VALID,0.851563,
2007-10-19, 00:57:00,VALID,917.656,VALID,0,VALID,100,VALID,-0.0339617,VALID,18.2931,VALID,177,VALID,0.516533,
2007-10-19, 00:58:00,VALID,917.639,VALID,0,VALID,100,VALID,0,VALID,18.2771,VALID,178,VALID,0.551683,
2007-10-19, 00:59:00,VALID,917.603,VALID,0,VALID,100,VALID,-0.0169808,VALID,18.2674,VALID,179,VALID,0.808894,
2007-10-19, 01:00:00,VALID,917.568,VALID,0,VALID,100,VALID,0,VALID,18.2671,VALID,169,VALID,0.686228,
2007-10-19, 01:01:00,VALID,917.547,VALID,0,VALID,100,VALID,-0.0509425,VALID,18.2576,VALID,169,VALID,0.566592,
2007-10-19, 01:02:00,VALID,917.53,VALID,0,VALID,100,VALID,-0.0509425,VALID,18.2736,VALID,171,VALID,0.52504,
2007-10-19, 01:03:00,VALID,917.512,VALID,0,VALID,100,VALID,-0.0679233,VALID,18.2771,VALID,171,VALID,0.00892857,
2007-10-19, 01:04:00,VALID,917.506,VALID,0,VALID,100,VALID,-0.101885,VALID,18.2741,VALID,171,VALID,0.0179869,
2007-10-19, 01:05:00,VALID,917.495,VALID,0,VALID,100,VALID,-0.0679233,VALID,18.2579,VALID,171,VALID,0,
2007-10-19, 01:06:00,VALID,917.482,VALID,0,VALID,100,VALID,-0.0679233,VALID,18.2481,VALID,171,VALID,0.000173611,
2007-10-19, 01:07:00,VALID,917.479,VALID,0,VALID,100,VALID,-0.0679233,VALID,18.2447,VALID,199,VALID,0.458394,
2007-10-19, 01:08:00,VALID,917.497,VALID,0,VALID,100,VALID,0,VALID,18.2505,VALID,213,VALID,0.276101,
2007-10-19, 01:09:00,VALID,917.506,VALID,0,VALID,100,VALID,0,VALID,18.244,VALID,213,VALID,0.143821,
2007-10-19, 01:10:00,VALID,917.532,VALID,0,VALID,100,VALID,0,VALID,18.1819,VALID,206,VALID,0.201367,
2007-10-19, 01:11:00,VALID,917.538,VALID,0,VALID,100,VALID,0,VALID,18.1694,VALID,196,VALID,0.662574,
2007-10-19, 01:12:00,VALID,917.53,VALID,0,VALID,100,VALID,0,VALID,18.1659,VALID,200,VALID,0.679688,
2007-10-19, 01:13:00,VALID,917.539,VALID,0,VALID,100,VALID,-0.0169808,VALID,18.1659,VALID,203,VALID,0.727865,
2007-10-19, 01:14:00,VALID,917.545,VALID,0,VALID,100,VALID,0.0169808,VALID,18.1949,VALID,203,VALID,0.603338,
2007-10-19, 01:15:00,VALID,917.546,VALID,0,VALID,100,VALID,0,VALID,18.241,VALID,203,VALID,0.352471,
2007-10-19, 01:16:00,VALID,917.547,VALID,0,VALID,100,VALID,-0.0169808,VALID,18.2248,VALID,204,VALID,0.298264,
2007-10-19, 01:17:00,VALID,917.527,VALID,0,VALID,100,VALID,0,VALID,18.228,VALID,231,VALID,1.03716,
2007-10-19, 01:18:00,VALID,917.523,VALID,0,VALID,100,VALID,0,VALID,18.2961,VALID,234,VALID,1.19158,
2007-10-19, 01:19:00,VALID,917.509,VALID,0,VALID,100,VALID,-0.0339617,VALID,18.3123,VALID,230,VALID,0.994792,
2007-10-19, 01:20:00,VALID,917.485,VALID,0,VALID,100,VALID,-0.0339617,VALID,18.3128,VALID,231,VALID,0.822743,
2007-10-19, 01:21:00,VALID,917.488,VALID,0,VALID,100,VALID,-0.0509425,VALID,18.3061,VALID,231,VALID,0.72168,
2007-10-19, 01:22:00,VALID,917.497,VALID,0,VALID,100,VALID,-0.0169808,VALID,18.2896,VALID,231,VALID,0.154018,
2007-10-19, 01:23:00,VALID,917.506,VALID,0,VALID,100,VALID,-0.0339617,VALID,18.2901,VALID,231,VALID,0.0594815,
2007-10-19, 01:24:00,VALID,917.519,VALID,0,VALID,100,VALID,-0.0339617,VALID,18.2769,VALID,231,VALID,0,
2007-10-19, 01:25:00,VALID,917.543,VALID,0,VALID,100,VALID,0,VALID,18.2437,VALID,231,VALID,0,
2007-10-19, 01:26:00,VALID,917.544,VALID,0,VALID,100,VALID,-0.0339617,VALID,18.228,VALID,231,VALID,0,
2007-10-19, 01:27:00,VALID,917.569,VALID,0,VALID,100,VALID,0,VALID,18.1858,VALID,223,VALID,0.0602679,
2007-10-19, 01:28:00,VALID,917.583,VALID,0,VALID,100,VALID,-0.0169808,VALID,18.1495,VALID,217,VALID,0.399891,
2007-10-19, 01:29:00,VALID,917.584,VALID,0,VALID,100,VALID,0.0339617,VALID,18.1594,VALID,221,VALID,0.299782,
2007-10-19, 01:30:00,VALID,917.581,VALID,0,VALID,100,VALID,0.0169808,VALID,18.1687,VALID,221,VALID,0,
2007-10-19, 01:31:00,VALID,917.575,VALID,0,VALID,100,VALID,0,VALID,18.1724,VALID,221,VALID,0,
2007-10-19, 01:32:00,VALID,917.57,VALID,0,VALID,100,VALID,0,VALID,18.0844,VALID,221,VALID,0,
2007-10-19, 01:33:00,VALID,917.562,VALID,0,VALID,100,VALID,-0.0169808,VALID,18.0232,VALID,221,VALID,0,
2007-10-19, 01:34:00,VALID,917.558,VALID,0,VALID,100,VALID,0,VALID,18.0098,VALID,221,VALID,0.0487805,
2007-10-19, 01:35:00,VALID,917.547,VALID,0,VALID,100,VALID,0.0339617,VALID,18.0295,VALID,215,VALID,0.495998,
2007-10-19, 01:36:00,VALID,917.539,VALID,0,VALID,100,VALID,0,VALID,18.0689,VALID,201,VALID,0.797247,
2007-10-19, 01:37:00,VALID,917.516,VALID,0,VALID,100,VALID,-0.0679233,VALID,18.1372,VALID,192,VALID,0.762173,
2007-10-19, 01:38:00,VALID,917.492,VALID,0,VALID,100,VALID,-0.0849042,VALID,18.1636,VALID,189,VALID,0.717507,
2007-10-19, 01:39:00,VALID,917.471,VALID,0,VALID,100,VALID,-0.0849042,VALID,18.1773,VALID,188,VALID,0.805804,
2007-10-19, 01:40:00,VALID,917.451,VALID,0,VALID,100,VALID,-0.101885,VALID,18.1863,VALID,188,VALID,0.81994,
2007-10-19, 01:41:00,VALID,917.423,VALID,0,VALID,100,VALID,-0.101885,VALID,18.2164,VALID,180,VALID,0.714472,
2007-10-19, 01:42:00,VALID,917.401,VALID,0,VALID,100,VALID,-0.101885,VALID,18.2224,VALID,179,VALID,0.563408,
2007-10-19, 01:43:00,VALID,917.378,VALID,0,VALID,100,VALID,-0.101885,VALID,18.2122,VALID,179,VALID,0.377418,
2007-10-19, 01:44:00,VALID,917.341,VALID,0,VALID,100,VALID,-0.0849042,VALID,18.2289,VALID,179,VALID,0.0561756,
2007-10-19, 01:45:00,VALID,917.334,VALID,0,VALID,100,VALID,-0.101885,VALID,18.1895,VALID,179,VALID,0,
2007-10-19, 01:46:00,VALID,917.33,VALID,0,VALID,100,VALID,-0.101885,VALID,18.1321,VALID,179,VALID,0,
2007-10-19, 01:47:00,VALID,917.334,VALID,0,VALID,100,VALID,-0.101885,VALID,18.0962,VALID,186,VALID,0,
2007-10-19, 01:48:00,VALID,917.327,VALID,0,VALID,100,VALID,-0.0849042,VALID,18.1057,VALID,186,VALID,0.179688,
2007-10-19, 01:49:00,VALID,917.332,VALID,0,VALID,100,VALID,-0.118866,VALID,18.1224,VALID,173,VALID,1.0883,
2007-10-19, 01:50:00,VALID,917.332,VALID,0,VALID,100,VALID,-0.101885,VALID,18.1191,VALID,158,VALID,1.00877,
2007-10-19, 01:51:00,VALID,917.334,VALID,0,VALID,100,VALID,-0.101885,VALID,18.158,VALID,164,VALID,1.10792,
2007-10-19, 01:52:00,VALID,917.324,VALID,0,VALID,100,VALID,-0.0339617,VALID,18.1796,VALID,154,VALID,0.84189,
2007-10-19, 01:53:00,VALID,917.317,VALID,0,VALID,100,VALID,0,VALID,18.1796,VALID,147,VALID,0.818598,
2007-10-19, 01:54:00,VALID,917.311,VALID,0,VALID,100,VALID,0,VALID,18.1726,VALID,157,VALID,0.649132,
2007-10-19, 01:55:00,VALID,917.311,VALID,0,VALID,100,VALID,0,VALID,18.1796,VALID,157,VALID,0.748365,
2007-10-19, 01:56:00,VALID,917.32,VALID,0,VALID,100,VALID,-0.0169808,VALID,18.1692,VALID,162,VALID,0.611919,
2007-10-19, 01:57:00,VALID,917.323,VALID,0,VALID,100,VALID,0.0339617,VALID,18.1689,VALID,161,VALID,0.625533,
2007-10-19, 01:58:00,VALID,917.323,VALID,0,VALID,100,VALID,0,VALID,18.159,VALID,153,VALID,0.903363,
2007-10-19, 01:59:00,VALID,917.33,VALID,0,VALID,100,VALID,0.0169808,VALID,18.1657,VALID,154,VALID,0.675145,
2007-10-19, 02:00:00,VALID,917.339,VALID,0,VALID,100,VALID,0.0169808,VALID,18.1432,VALID,152,VALID,0.45846,
2007-10-19, 02:01:00,VALID,917.329,VALID,0,VALID,100,VALID,0.0169808,VALID,18.1006,VALID,141,VALID,0.64707,
2007-10-19, 02:02:00,VALID,917.323,VALID,0,VALID,100,VALID,0,VALID,18.1138,VALID,135,VALID,0.749628,
2007-10-19, 02:03:00,VALID,917.304,VALID,0,VALID,100,VALID,0.0339617,VALID,18.1298,VALID,135,VALID,0.733613,
2007-10-19, 02:04:00,VALID,917.283,VALID,0,VALID,100,VALID,0,VALID,18.1303,VALID,135,VALID,0.679167,
2007-10-19, 02:05:00,VALID,917.265,VALID,0,VALID,100,VALID,0.0169808,VALID,18.1168,VALID,135,VALID,0.456845,
2007-10-19, 02:06:00,VALID,917.257,VALID,0,VALID,100,VALID,0,VALID,18.1073,VALID,135,VALID,0.134266,
2007-10-19, 02:07:00,VALID,917.243,VALID,0,VALID,100,VALID,-0.0169808,VALID,18.0941,VALID,135,VALID,0.157292,
2007-10-19, 02:08:00,VALID,917.228,VALID,0,VALID,100,VALID,0,VALID,18.1011,VALID,135,VALID,0,
2007-10-19, 02:09:00,VALID,917.231,VALID,0,VALID,100,VALID,-0.0169808,VALID,18.0849,VALID,135,VALID,0.225586,
2007-10-19, 02:10:00,VALID,917.225,VALID,0,VALID,100,VALID,-0.0169808,VALID,18.0923,VALID,135,VALID,0.146307,
2007-10-19, 02:11:00,VALID,917.232,VALID,0,VALID,100,VALID,-0.0169808,VALID,18.0916,VALID,135,VALID,0,
2007-10-19, 02:12:00,VALID,917.237,VALID,0,VALID,100,VALID,-0.0509425,VALID,18.0786,VALID,135,VALID,0,
2007-10-19, 02:13:00,VALID,917.222,VALID,0,VALID,100,VALID,-0.0339617,VALID,18.0823,VALID,135,VALID,0,
2007-10-19, 02:14:00,VALID,917.22,VALID,0,VALID,100,VALID,-0.0169808,VALID,18.108,VALID,135,VALID,0,
2007-10-19, 02:15:00,VALID,917.222,VALID,0,VALID,100,VALID,-0.0169808,VALID,18.1502,VALID,119,VALID,0.0339674,
2007-10-19, 02:16:00,VALID,917.224,VALID,0,VALID,100,VALID,0,VALID,18.2048,VALID,27,VALID,0.221591,
2007-10-19, 02:17:00,VALID,917.231,VALID,0,VALID,100,VALID,-0.0169808,VALID,18.2315,VALID,27,VALID,0.100991,
2007-10-19, 02:18:00,VALID,917.249,VALID,0,VALID,100,VALID,-0.0339617,VALID,18.2701,VALID,27,VALID,0.21439,
2007-10-19, 02:19:00,VALID,917.268,VALID,0,VALID,100,VALID,-0.0339617,VALID,18.2891,VALID,27,VALID,0.0279297,
2007-10-19, 02:20:00,VALID,917.279,VALID,0,VALID,100,VALID,0,VALID,18.2959,VALID,27,VALID,0,
2007-10-19, 02:21:00,VALID,917.284,VALID,0,VALID,100,VALID,0,VALID,18.218,VALID,27,VALID,0,
2007-10-19, 02:22:00,VALID,917.273,VALID,0,VALID,100,VALID,-0.0169808,VALID,18.124,VALID,27,VALID,0,
2007-10-19, 02:23:00,VALID,917.288,VALID,0,VALID,100,VALID,-0.0169808,VALID,18.1143,VALID,39,VALID,0,
2007-10-19, 02:24:00,VALID,917.287,VALID,0,VALID,100,VALID,-0.0169808,VALID,18.095,VALID,85,VALID,0,
2007-10-19, 02:25:00,VALID,917.278,VALID,0,VALID,100,VALID,-0.0169808,VALID,18.0619,VALID,85,VALID,0,
2007-10-19, 02:26:00,VALID,917.263,VALID,0,VALID,100,VALID,0,VALID,18.0659,VALID,85,VALID,0,
2007-10-19, 02:27:00,VALID,917.255,VALID,0,VALID,100,VALID,0,VALID,18.01,VALID,85,VALID,0,
2007-10-19, 02:28:00,VALID,917.233,VALID,0,VALID,100,VALID,0,VALID,18.004,VALID,85,VALID,0,
2007-10-19, 02:29:00,VALID,917.243,VALID,0,VALID,100,VALID,0,VALID,17.9908,VALID,81,VALID,0,
2007-10-19, 02:30:00,VALID,917.238,VALID,0,VALID,100,VALID,-0.0169808,VALID,17.991,VALID,74,VALID,0,
2007-10-19, 02:31:00,VALID,917.235,VALID,0,VALID,100,VALID,-0.0169808,VALID,18.0691,VALID,74,VALID,0,
2007-10-19, 02:32:00,VALID,917.233,VALID,0,VALID,100,VALID,-0.0339617,VALID,18.1367,VALID,74,VALID,0,
2007-10-19, 02:33:00,VALID,917.224,VALID,0,VALID,100,VALID,-0.0169808,VALID,18.1657,VALID,74,VALID,0,
2007-10-19, 02:34:00,VALID,917.228,VALID,0,VALID,100,VALID,0,VALID,18.153,VALID,74,VALID,0,
2007-10-19, 02:35:00,VALID,917.244,VALID,0,VALID,100,VALID,0,VALID,18.127,VALID,74,VALID,0,
2007-10-19, 02:36:00,VALID,917.262,VALID,0,VALID,100,VALID,0,VALID,18.114,VALID,74,VALID,0,
2007-10-19, 02:37:00,VALID,917.257,VALID,0,VALID,100,VALID,0,VALID,18.1071,VALID,74,VALID,0,
2007-10-19, 02:38:00,VALID,917.244,VALID,0,VALID,100,VALID,0,VALID,18.1203,VALID,73,VALID,0,
2007-10-19, 02:39:00,VALID,917.232,VALID,0,VALID,100,VALID,0,VALID,18.1819,VALID,73,VALID,0,
2007-10-19, 02:40:00,VALID,917.209,VALID,0,VALID,100,VALID,0.0169808,VALID,18.1886,VALID,73,VALID,0,
2007-10-19, 02:41:00,VALID,917.197,VALID,0,VALID,100,VALID,0,VALID,18.1724,VALID,73,VALID,0.0695312,
2007-10-19, 02:42:00,VALID,917.174,VALID,0,VALID,100,VALID,-0.0169808,VALID,18.2053,VALID,93,VALID,0.748094,
2007-10-19, 02:43:00,VALID,917.159,VALID,0,VALID,100,VALID,0,VALID,18.2021,VALID,105,VALID,0.833212,
2007-10-19, 02:44:00,VALID,917.152,VALID,0,VALID,100,VALID,-0.0169808,VALID,18.1854,VALID,103,VALID,0.501524,
2007-10-19, 02:45:00,VALID,917.16,VALID,0,VALID,100,VALID,0,VALID,18.1854,VALID,103,VALID,0.226918,
2007-10-19, 02:46:00,VALID,917.164,VALID,0,VALID,100,VALID,0.0169808,VALID,18.1789,VALID,103,VALID,0,
2007-10-19, 02:47:00,VALID,917.154,VALID,0,VALID,100,VALID,0,VALID,18.1794,VALID,103,VALID,0,
2007-10-19, 02:48:00,VALID,917.14,VALID,0,VALID,100,VALID,-0.0169808,VALID,18.1824,VALID,103,VALID,0.169695,
2007-10-19, 02:49:00,VALID,917.127,VALID,0,VALID,100,VALID,-0.0169808,VALID,18.1724,VALID,156,VALID,0.65434,
2007-10-19, 02:50:00,VALID,917.094,VALID,0,VALID,100,VALID,0,VALID,18.1726,VALID,163,VALID,0.995536,
2007-10-19, 02:51:00,VALID,917.078,VALID,0,VALID,100,VALID,0,VALID,18.1624,VALID,154,VALID,0.957775,
2007-10-19, 02:52:00,VALID,917.026,VALID,0,VALID,100,VALID,0,VALID,18.1756,VALID,157,VALID,1.03296,
2007-10-19, 02:53:00,VALID,917.014,VALID,0,VALID,100,VALID,-0.0169808,VALID,18.1884,VALID,152,VALID,0.844531,
2007-10-19, 02:54:00,VALID,917.006,VALID,0,VALID,100,VALID,0,VALID,18.1787,VALID,144,VALID,0.650799,
2007-10-19, 02:55:00,VALID,916.995,VALID,0,VALID,100,VALID,0,VALID,18.1958,VALID,144,VALID,0.316051,
2007-10-19, 02:56:00,VALID,916.998,VALID,0,VALID,100,VALID,0,VALID,18.1986,VALID,144,VALID,0,
2007-10-19, 02:57:00,VALID,917.006,VALID,0,VALID,100,VALID,0.0169808,VALID,18.2051,VALID,144,VALID,0,
2007-10-19, 02:58:00,VALID,916.978,VALID,0,VALID,100,VALID,0.0169808,VALID,18.1949,VALID,144,VALID,0,
2007-10-19, 02:59:00,VALID,916.965,VALID,0,VALID,100,VALID,-0.0169808,VALID,18.2018,VALID,144,VALID,0,
2007-10-19, 03:00:00,VALID,916.95,VALID,0,VALID,100,VALID,0,VALID,18.2051,VALID,144,VALID,0,
2007-10-19, 03:01:00,VALID,916.927,VALID,0,VALID,100,VALID,0,VALID,18.2018,VALID,144,VALID,0,
2007-10-19, 03:02:00,VALID,916.901,VALID,0,VALID,100,VALID,0,VALID,18.2083,VALID,144,VALID,0,
2007-10-19, 03:03:00,VALID,916.891,VALID,0,VALID,100,VALID,0.0169808,VALID,18.1849,VALID,144,VALID,0,
2007-10-19, 03:04:00,VALID,916.898,VALID,0,VALID,100,VALID,0,VALID,18.1687,VALID,144,VALID,0,
2007-10-19, 03:05:00,VALID,916.907,VALID,0,VALID,100,VALID,-0.0509425,VALID,18.1495,VALID,144,VALID,0,
2007-10-19, 03:06:00,VALID,916.921,VALID,0,VALID,100,VALID,-0.0509425,VALID,18.1599,VALID,144,VALID,0,
2007-10-19, 03:07:00,VALID,916.924,VALID,0,VALID,100,VALID,-0.0169808,VALID,18.1699,VALID,144,VALID,0,
2007-10-19, 03:08:00,VALID,916.95,VALID,0,VALID,100,VALID,-0.0679233,VALID,18.1666,VALID,144,VALID,0.260298,
2007-10-19, 03:09:00,VALID,916.972,VALID,0,VALID,100,VALID,-0.0169808,VALID,18.196,VALID,144,VALID,0.316229,
2007-10-19, 03:10:00,VALID,916.992,VALID,0,VALID,100,VALID,-0.0339617,VALID,18.2345,VALID,144,VALID,0.107244,
2007-10-19, 03:11:00,VALID,917.02,VALID,0,VALID,100,VALID,-0.0339617,VALID,18.2739,VALID,144,VALID,0,
2007-10-19, 03:12:00,VALID,917.026,VALID,0,VALID,100,VALID,-0.0849042,VALID,18.2736,VALID,144,VALID,0.000390625,
2007-10-19, 03:13:00,VALID,917.017,VALID,0,VALID,100,VALID,-0.0849042,VALID,18.2479,VALID,144,VALID,0.00133384,
2007-10-19, 03:14:00,VALID,917.029,VALID,0,VALID,100,VALID,-0.0509425,VALID,18.2023,VALID,134,VALID,0.71875,
2007-10-19, 03:15:00,VALID,917.034,VALID,0,VALID,100,VALID,-0.0509425,VALID,18.1928,VALID,124,VALID,0.991406,
2007-10-19, 03:16:00,VALID,917.024,VALID,0,VALID,100,VALID,-0.0339617,VALID,18.193,VALID,136,VALID,1.1492,
2007-10-19, 03:17:00,VALID,917.024,VALID,0,VALID,100,VALID,-0.0679233,VALID,18.1865,VALID,146,VALID,1.04015,
2007-10-19, 03:18:00,VALID,917.022,VALID,0,VALID,100,VALID,-0.0509425,VALID,18.1636,VALID,144,VALID,0.683685,
2007-10-19, 03:19:00,VALID,917.026,VALID,0,VALID,100,VALID,-0.0339617,VALID,18.1569,VALID,144,VALID,0.544969,
2007-10-19, 03:20:00,VALID,917.01,VALID,0,VALID,100,VALID,-0.0509425,VALID,18.1374,VALID,144,VALID,0.269077,
2007-10-19, 03:21:00,VALID,917.005,VALID,0,VALID,100,VALID,-0.0339617,VALID,18.1279,VALID,144,VALID,0.532366,
2007-10-19, 03:22:00,VALID,916.991,VALID,0,VALID,100,VALID,0,VALID,18.133,VALID,144,VALID,0.636446,
2007-10-19, 03:23:00,VALID,916.966,VALID,0,VALID,100,VALID,0.0509425,VALID,18.1303,VALID,147,VALID,0.698765,
2007-10-19, 03:24:00,VALID,916.95,VALID,0,VALID,100,VALID,0.0509425,VALID,18.1136,VALID,173,VALID,0.844866,
2007-10-19, 03:25:00,VALID,916.937,VALID,0,VALID,100,VALID,0.0679233,VALID,18.1136,VALID,177,VALID,0.782703,
2007-10-19, 03:26:00,VALID,916.928,VALID,0,VALID,100,VALID,0.0339617,VALID,18.1004,VALID,176,VALID,0.747024,
2007-10-19, 03:27:00,VALID,916.913,VALID,0,VALID,100,VALID,0.0509425,VALID,18.1106,VALID,177,VALID,0.46254,
2007-10-19, 03:28:00,VALID,916.896,VALID,0,VALID,100,VALID,0.0509425,VALID,18.1006,VALID,177,VALID,0.0552083,
2007-10-19, 03:29:00,VALID,916.911,VALID,0,VALID,100,VALID,0.0509425,VALID,18.0747,VALID,177,VALID,0,
2007-10-19, 03:30:00,VALID,916.891,VALID,0,VALID,100,VALID,0,VALID,18.055,VALID,177,VALID,0.108285,
2007-10-19, 03:31:00,VALID,916.894,VALID,0,VALID,100,VALID,0.0339617,VALID,18.0911,VALID,177,VALID,0.431021,
2007-10-19, 03:32:00,VALID,916.892,VALID,0,VALID,100,VALID,0.0849042,VALID,18.1039,VALID,177,VALID,0.473958,
2007-10-19, 03:33:00,VALID,916.893,VALID,0,VALID,100,VALID,0.101885,VALID,18.1064,VALID,177,VALID,0.542696,
2007-10-19, 03:34:00,VALID,916.9,VALID,0,VALID,100,VALID,0.0509425,VALID,18.1166,VALID,176,VALID,0.743304,
2007-10-19, 03:35:00,VALID,916.894,VALID,0,VALID,100,VALID,0.0679233,VALID,18.1263,VALID,166,VALID,0.815358,
2007-10-19, 03:36:00,VALID,916.907,VALID,0,VALID,100,VALID,0.0169808,VALID,18.1428,VALID,158,VALID,0.675781,
2007-10-19, 03:37:00,VALID,916.925,VALID,0,VALID,100,VALID,-0.0169808,VALID,18.1268,VALID,157,VALID,0.632635,
2007-10-19, 03:38:00,VALID,916.929,VALID,0,VALID,100,VALID,-0.0679233,VALID,18.1147,VALID,150,VALID,0.53032,
2007-10-19, 03:39:00,VALID,916.951,VALID,0,VALID,100,VALID,-0.0169808,VALID,18.0888,VALID,143,VALID,0.610547,
2007-10-19, 03:40:00,VALID,916.954,VALID,0,VALID,100,VALID,-0.0339617,VALID,18.0272,VALID,140,VALID,0.669444,
2007-10-19, 03:41:00,VALID,916.959,VALID,0,VALID,100,VALID,-0.0509425,VALID,18.0079,VALID,135,VALID,0.867746,
2007-10-19, 03:42:00,VALID,916.953,VALID,0,VALID,100,VALID,-0.0339617,VALID,18.0079,VALID,120,VALID,0.928735,
2007-10-19, 03:43:00,VALID,916.962,VALID,0,VALID,100,VALID,-0.0339617,VALID,18.0533,VALID,117,VALID,0.854106,
2007-10-19, 03:44:00,VALID,916.956,VALID,0,VALID,100,VALID,-0.0339617,VALID,18.0267,VALID,117,VALID,0.709794,